Decimomannu, Italy

4:07 AM CEST on July 27, 2017 (GMT +0200)
Decimomannu Mil

Weather History for LIED - August, 2013

Change the Weather History Date:

Thursday, August 29, 2013

  Actual Average Record
Temperature  
Mean Temperature 77 °F -  
Max Temperature 90 °F 83 °F 100 °F (2001)
Min Temperature 64 °F 61 °F 61 °F (2016)
Cooling Degree Days 12    
Growing Degree Days 27 (Base 50)    
Moisture  
Dew Point 62 °F    
Average Humidity 64    
Maximum Humidity 89    
Minimum Humidity 21    
Precipitation  
Precipitation 0.00 in 0.05 in - ()
Sea Level Pressure  
Sea Level Pressure 29.97 in    
Wind  
Wind Speed 7 mph ()    
Max Wind Speed 20 mph    
Max Gust Speed -    
Visibility 6.7 miles    
Events      
Averages and records for this station are not official NWS values.
T = Trace of Precipitation, MM = Missing Value Source: Averaged Metar Reports

Daily Weather History Graph

Daily Weather History Graph

Search for Another Location

Airport or City:

Trip Planner

Search our weather history database for the weather conditions in past years. The results will help you decide how hot, cold, wet, or windy it might be!

Date:

Astronomy

Aug. 29, 2013 Rise Set
Actual Time 6:49 AM CEST 7:59 PM CEST
Civil Twilight 6:22 AM CEST 8:27 PM CEST
Nautical Twilight 5:49 AM CEST 9:00 PM CEST
Astronomical Twilight 5:14 AM CEST 9:34 PM CEST
Moon 12:30 AM CEST (8/29) 3:13 PM CEST (8/29)
Length of Visible Light 14h 05m
Length of Day
13h 09m
Last Quarter, 40% of the Moon is Illuminated
Aug 29
Last Quarter
Sep 5
New
Sep 12
First Quarter
Sep 19
Full
Sep 27
Last Quarter

Hourly Weather History & Observations

Time (CEST) Temp. Heat Index Dew Point Humidity Pressure Visibility Wind Dir Wind Speed Gust Speed Precip Events Conditions
12:55 AM 68.0 °F - 64.4 °F 88% 29.98 in 6.2 mi NNW 8.1 mph - N/A   Partly Cloudy
1:55 AM 66.2 °F - 62.6 °F 88% 30.01 in 6.2 mi North 3.5 mph - N/A   Partly Cloudy
2:00 AM 66 °F - 63 °F 85% 30.03 in 12 mi North 3.5 mph - -   Scattered Clouds
2:55 AM 66.2 °F - 62.6 °F 88% 30.01 in 6.2 mi NE 6.9 mph - N/A   Partly Cloudy
3:55 AM 66.2 °F - 59.0 °F 78% 29.98 in 6.2 mi North 5.8 mph - N/A   Partly Cloudy
4:55 AM 66.2 °F - 57.2 °F 73% 29.95 in 6.2 mi North 4.6 mph - N/A   Scattered Clouds
5:55 AM 64.4 °F - 59.0 °F 83% 29.95 in 6.2 mi West 6.9 mph - N/A   Partly Cloudy
6:55 AM 66.2 °F - 60.8 °F 83% 29.95 in 6.2 mi NE 5.8 mph - N/A   Mostly Cloudy
7:55 AM 66.2 °F - 62.6 °F 88% 29.98 in 6.2 mi North 5.8 mph - N/A   Scattered Clouds
8:00 AM 66 °F - 62 °F 84% 29.98 in 9 mi North 5.8 mph - -   Partly Cloudy
8:55 AM 69.8 °F - 60.8 °F 73% 29.98 in - NNW 4.6 mph - N/A   Clear
9:55 AM 75.2 °F - 55.4 °F 50% 29.98 in 6.2 mi NW 6.9 mph - N/A   Partly Cloudy
10:55 AM 80.6 °F 80.3 °F 53.6 °F 39% 29.98 in - SSW 2.3 mph - N/A   Clear
11:00 AM 81 °F - 54 °F 29% 29.98 in 22 mi SSW 2.3 mph - -   Scattered Clouds
11:55 AM 84.2 °F 82.8 °F 53.6 °F 35% 29.98 in 6.2 mi South 4.6 mph - N/A   Partly Cloudy
12:55 PM 86.0 °F 84.2 °F 53.6 °F 33% 29.95 in 6.2 mi South 6.9 mph - N/A   Partly Cloudy
1:55 PM 91.4 °F 89.4 °F 55.4 °F 29% 29.95 in 6.2 mi ESE 6.9 mph - N/A   Partly Cloudy
2:00 PM 91 °F - 56 °F 21% 29.96 in 22 mi ESE 6.9 mph - -   Scattered Clouds
2:55 PM 87.8 °F 87.6 °F 60.8 °F 40% 29.95 in 6.2 mi SSE 13.8 mph - N/A   Partly Cloudy
3:55 PM 87.8 °F 87.6 °F 60.8 °F 40% 29.95 in 6.2 mi SSE 15.0 mph - N/A   Partly Cloudy
4:55 PM 87.8 °F 89.4 °F 64.4 °F 46% 29.92 in 6.2 mi South 16.1 mph - N/A   Partly Cloudy
5:00 PM 87 °F - 65 °F 38% 29.94 in 25 mi South 16.1 mph - -   Scattered Clouds
5:55 PM 82.4 °F 83.4 °F 62.6 °F 51% 29.92 in 6.2 mi SE 19.6 mph - N/A   Partly Cloudy
6:55 PM 80.6 °F 83.2 °F 68.0 °F 65% 29.95 in 6.2 mi SSE 11.5 mph - N/A   Partly Cloudy
7:55 PM 78.8 °F - 69.8 °F 74% 29.95 in 6.2 mi South 15.0 mph - N/A   Partly Cloudy
8:00 PM 78 °F - 71 °F 72% 29.96 in 12 mi South 15.0 mph - -   Scattered Clouds
8:55 PM 75.2 °F - 71.6 °F 89% 29.98 in 6.2 mi South 12.7 mph - N/A   Partly Cloudy
9:55 PM 73.4 °F - 66.2 °F 78% 29.98 in 6.2 mi WSW 3.5 mph - N/A   Partly Cloudy
10:55 PM 71.6 °F - 66.2 °F 83% 29.98 in 6.2 mi North 8.1 mph - N/A   Scattered Clouds
11:00 PM 71 °F - 67 °F 83% 30.00 in 6 mi North 8.1 mph - -   Partly Cloudy
11:55 PM 71.6 °F - 68.0 °F 88% 29.98 in 6.2 mi NW 6.9 mph - N/A   Partly Cloudy